Home   Weather   Israel   Herzliya   Past weeks
Flag for Israel

Past Weather in Herzliya, Israel — Yesterday and Last 2 Weeks

Currently: 70 °F. Sunny. (Weather station: Ben Gurion International Airport, Israel). See more current weather

Past Weather in Herzliya — Graph

°F

Herzliya Temperature Yesterday

Maximum temperature yesterday: 66 °F (at 12:50 pm)
Minimum temperature yesterday: 50 °F (at 5:20 am)
Average temperature yesterday: 59 °F

High & Low Weather Summary for the Past Weeks

 TemperatureHumidityPressure
High77 °F (Feb 13, 11:50 am)100% (Feb 21, 5:50 am)30.21 "Hg (Feb 21, 5:50 am)
Low46 °F (Feb 21, 5:50 am)22% (Feb 13, 12:20 pm)29.71 "Hg (Feb 13, 2:20 pm)
Average60 °F72%30.03 "Hg
* Reported Feb 9 1:20 pm — Feb 24 1:20 pm, Herzliya. Weather by CustomWeather, © 2024

Note: Actual official high and low records may vary slightly from our data, if they occured in-between our weather recording intervals... More about our weather records

Herzliya Weather History for the Previous 24 Hours

Scroll right to see more
 ConditionsComfort  
Time TempWeatherWind HumidityBarometerVisibility
1:20 pm
Sat, Feb 24
70 °FSunny.3 mph40%30.07 "Hg10 mi
12:50 pm68 °FSunny.6 mph43%30.07 "Hg10 mi
12:20 pm68 °FSunny.8 mph46%30.07 "Hg10 mi
11:50 am66 °FSunny.7 mph52%30.09 "Hg10 mi
11:20 am66 °FSunny.6 mph56%30.09 "Hg10 mi
10:50 am64 °FSunny.8 mph60%30.09 "Hg10 mi
10:20 am64 °FSunny.7 mph64%30.09 "Hg10 mi
9:50 am63 °FClear.7 mph83%30.09 "Hg6 mi
9:20 am61 °FClear.2 mph83%30.09 "Hg5 mi
8:50 am61 °FClear.3 mph83%30.09 "Hg5 mi
8:20 am59 °FClear.3 mph88%30.09 "Hg5 mi
7:50 am59 °FLight rain. Clear.2 mph88%30.09 "Hg5 mi
7:20 am59 °FLight rain. Clear.1 mph82%30.07 "Hg5 mi
6:50 am57 °FClear.8 mph88%30.07 "Hg4 mi
6:20 am57 °FClear.2 mph88%30.07 "Hg6 mi
5:50 am57 °FClear.1 mph88%30.04 "Hg6 mi
5:20 am59 °FClear.3 mph82%30.04 "Hg5 mi
4:50 am59 °FClear.2 mph82%30.07 "Hg6 mi
4:20 am61 °FClear.5 mph77%30.07 "Hg6 mi
3:50 am61 °FClear.3 mph77%30.04 "Hg6 mi
3:20 am59 °FClear.12 mph82%30.07 "Hg6 mi
2:50 am59 °FClear.12 mph82%30.07 "Hg6 mi
1:20 am59 °FClear.2 mph82%30.07 "Hg4 mi
12:50 am57 °FClear.5 mph88%30.07 "Hg4 mi
12:20 am57 °FClear.2 mph94%30.07 "Hg4 mi
11:50 pm
Fri, Feb 23
57 °FClear.3 mph88%30.07 "Hg4 mi
11:20 pm59 °FClear.2 mph82%30.07 "Hg4 mi
10:20 pm61 °FClear.3 mph77%30.07 "Hg5 mi
9:50 pm59 °FClear.2 mph82%30.07 "Hg10 mi
9:20 pm59 °FClear.3 mph82%30.09 "Hg10 mi
8:50 pm61 °FClear.3 mph77%30.09 "Hg10 mi
8:20 pm61 °FClear.5 mph77%30.07 "Hg10 mi
7:50 pm61 °FClear.5 mph77%30.07 "Hg10 mi
7:20 pm61 °FClear.6 mph77%30.07 "Hg10 mi
6:50 pm63 °FClear.6 mph73%30.07 "Hg10 mi
6:20 pm63 °FClear.7 mph73%30.07 "Hg10 mi
5:50 pm63 °FClear.7 mph73%30.07 "Hg10 mi
5:20 pm63 °FClear.8 mph73%30.07 "Hg5 mi
4:50 pm64 °FClear.8 mph68%30.07 "Hg6 mi
4:20 pm64 °FClear.8 mph68%30.07 "Hg6 mi
3:50 pm64 °FSunny.12 mph68%30.07 "Hg10 mi
3:20 pm64 °FSunny.10 mph68%30.07 "Hg10 mi
2:50 pm64 °FSunny.9 mph68%30.07 "Hg10 mi
2:20 pm64 °FSunny.9 mph68%30.09 "Hg10 mi
Weather by CustomWeather, © 2024

See weather overview